Ocean Springs, MS (39564)

2:51 AM CDT on April 30, 2017 (GMT -0500)
Fort Bayou Estates | | Change Station
Active Advisory: Coastal Flood Advisory Active Notice: Coastal Flood Advisory

Elev 25 ft 30.42 °N, 88.78 °W | Updated 21 minutes ago

Partly Cloudy
Partly Cloudy
77.2 °F
Feels Like 79 °F
N
7.0
Wind Variable Wind from SSE
Gusts 7.0 mph

Today
High -- | Low -- °F
--% Chance of Precip.
Yesterday
High -- | Low -- °F
Precip. -- in
Pressure 29.90 in
Visibility 10.0 miles
Clouds Scattered Clouds 1000 ft
Heat Index 79 °F
Dew Point 74 °F
Humidity 90%
Rainfall 0.00 in
Snow Depth Not available.
6:12 AM 7:32 PM
Waxing Crescent, 20% visible
METAR KBIX 300658Z AUTO 15014G23KT 10SM SCT010 25/23 A2989 RMK AO2 SLP124 T02510232
Pressure 29.90 in
Visibility 10.0 miles
Clouds Scattered Clouds 1000 ft
Heat Index 79 °F
Dew Point 74 °F
Humidity 90%
Rainfall 0.00 in
Snow Depth Not available.
6:12 AM 7:32 PM
Waxing Crescent, 20% visible
METAR KBIX 300658Z AUTO 15014G23KT 10SM SCT010 25/23 A2989 RMK AO2 SLP124 T02510232

Get Your Daily Forecast Email!

Thanks for signing up!

Be on the lookout for a verification email in your inbox.

You'll start receiving severe weather alerts in your inbox..

×

10-Day Weather Forecast

Almanac

Astronomy

Apr. 30, 2017 Rise Set
Actual Time
Civil Twilight
Nautical Twilight
Astronomical Twilight
Moon
Length of Visible Light
Length of Day
Tomorrow will be .
, % of the Moon is Illuminated

Today's Extremes

State Highs State Lows

Community

WunderPhotos

WunderBlog® & News

Nearby

Air Quality

  Air Quality AQ Index Pollutant
Not available.

Snow Depth

Station Depth Elevation

Earthquake Activity

City Distance Mag. Time & Date
Minimum magnitude displayed is 2.5.

Coastal Water Temperatures

Place Temperature

Stations

Nearby Weather Stations

Station Location Temp. Windchill Dew Point Humidity Wind Precip. Elev Updated Type
                   

Watches & Warnings

Coastal Flood Advisory
Issued: 3:52 PM CDT Apr. 29, 2017 – National Weather Service

... Coastal flood advisory remains in effect until midnight CDT
Sunday night...

* coastal flooding... tides 1 to 2 feet above normal Sunday.

* Timing... astronomical high tides will be in the early afternoon
hours Sunday.

* Impacts... minor flooding of low lying areas and access roads
near tidal lakes... bays and inlets as well as the open coast
outside the hurricane protection levee systems.

Precautionary/preparedness actions...

A coastal flood advisory indicates that onshore winds and tides
will combine to generate flooding of low areas along the shore.